sat.trackr.live / text

‹ back to catalog

STARLINK-32517

NORAD 61980 · 2024-210X

PAYLOAD ACTIVE UNKNOWN

§ Identity

Operator
Country
US
Launch date
2024-11-14
Launch site
AFETR
Launch vehicle
Mass (kg)
RCS (m²)

Purposes: comms

External: N2YO · Heavens-Above · Gunter

§ Orbital elements

Epoch: 2026-09-21T02:48:34.211232Z

Period
94.27 min
Inclination
43.0009°
Eccentricity
0.0001626
Mean motion
15.27589321 rev/d
Perigee alt
481.9 km
Apogee alt
484.1 km
Semi-major
6,861.2 km
B*
3.6032e-4
RAAN
156.5272°
Arg perigee
265.0244°
Mean anomaly
95.0422°
Rev number
10,471

§ Raw data

STARLINK-325171 61980U 24210X   26264.11706263  .00009669  00000+0  36032-3 0  99952 61980  43.0009 156.5272 0001626 265.0244  95.0422 15.27589321104716

JSON: /api/v1/satellites/61980 · /tle

For live sub-satellite position, see the globe view (requires WebGL).

§ Visibility from observer

Set your observer location to see the next 7 days of passes ≥ 10°. The values pass through the URL so the page stays shareable.

No JS? Fill the form by hand. The geolocation button needs JavaScript.